Weather History for Abbeville, LA

Change the Weather History Date:

Wednesday, November 9, 2011

  Actual Average (KARA) Record (KARA)
Temperature  
Mean Temperature 62 °F 63 °F  
Max Temperature 71 °F 75 °F 85 °F (1950)
Min Temperature 53 °F 52 °F 26 °F (1991)
Degree Days  
Heating Degree Days 3 4  
Month to date heating degree days 28  
Since 1 July heating degree days 62  
Cooling Degree Days 0 2  
Month to date cooling degree days 21  
Year to date cooling degree days 2766  
Growing Degree Days 12 (Base 50)    
Moisture  
Dew Point 56 °F    
Average Humidity 77    
Maximum Humidity 100    
Minimum Humidity 53    
Precipitation  
Precipitation 0.14 in 0.12 in 3.18 in (2000)
Month to date precipitation 0.91  
Year to date precipitation 51.35  
Sea Level Pressure  
Sea Level Pressure 30.11 in    
Wind  
Wind Speed 8 mph ()    
Max Wind Speed 17 mph    
Max Gust Speed 22 mph    
Visibility 10.0 miles    
Events Rain , Thunderstorm    
T = Trace of Precipitation, MM = Missing Value Source: Averaged Metar Reports

Daily Weather History Graph

Daily Weather History Graph

Search for Another Location

Airport:

Trip Planner

Search our weather history database for the weather conditions in past years. The results will help you decide how hot, cold, wet, or windy it might be!

Date:

Astronomy

Nov. 09, 2011 Rise Set
Actual Time 6:28 AM CST 5:15 PM CST
Civil Twilight 6:03 AM CST 5:40 PM CST
Nautical Twilight 5:34 AM CST 6:09 PM CST
Astronomical Twilight 5:06 AM CST 6:37 PM CST
Moon 4:28 PM CST (11/9) 5:24 AM CST (11/9)
Length of Visible Light 11h 37m
Length of Day
10h 47m
Waxing Gibbous, 99% of the Moon is Illuminated
Nov 9
Waxing Gibbous
Nov 10
Full
Nov 18
Last Quarter
Nov 25
New
Dec 2
First Quarter

Hourly Weather History & Observations

Time (CST) Temp. Dew Point Humidity Pressure Visibility Wind Dir Wind Speed Gust Speed Precip Events Conditions
12:15 AM 71.6 °F 71.6 °F 100% 30.00 in 10.0 mi SE 9.2 mph - 0.04 in Rain , Thunderstorm Thunderstorms and Rain
12:35 AM 69.8 °F 68.0 °F 94% 30.00 in 10.0 mi SE 10.4 mph - 0.07 in Rain , Thunderstorm Light Thunderstorms and Rain
12:55 AM 69.8 °F 69.8 °F 100% 29.98 in 10.0 mi SSE 8.1 mph - 0.07 in Thunderstorm Mostly Cloudy
1:15 AM 69.8 °F 69.8 °F 100% 29.98 in 10.0 mi SSE 4.6 mph - 0.01 in Rain , Thunderstorm Light Thunderstorms and Rain
1:55 AM 69.8 °F 69.8 °F 100% 30.02 in 10.0 mi Calm Calm - 0.07 in Rain , Thunderstorm Light Thunderstorms and Rain
2:15 AM 69.8 °F 69.8 °F 100% 30.00 in 10.0 mi Calm Calm - N/A   Scattered Clouds
2:35 AM 68.0 °F 68.0 °F 100% 30.00 in 10.0 mi North 3.5 mph - N/A   Scattered Clouds
2:55 AM 68.0 °F 68.0 °F 100% 30.00 in 10.0 mi North 3.5 mph - N/A   Mostly Cloudy
3:15 AM 68.0 °F 68.0 °F 100% 30.02 in 10.0 mi NW 3.5 mph - N/A   Overcast
3:35 AM 68.0 °F 68.0 °F 100% 30.02 in 10.0 mi NNW 11.5 mph - N/A   Overcast
3:55 AM 66.2 °F 64.4 °F 94% 30.02 in 10.0 mi North 10.4 mph - N/A   Overcast
4:15 AM 64.4 °F 62.6 °F 94% 30.03 in 10.0 mi North 8.1 mph 16.1 mph N/A   Overcast
4:35 AM 64.4 °F 59.0 °F 83% 30.03 in 10.0 mi North 9.2 mph - N/A   Overcast
5:15 AM 62.6 °F 57.2 °F 82% 30.05 in 10.0 mi North 9.2 mph - N/A   Mostly Cloudy
5:35 AM 62.6 °F 57.2 °F 82% 30.05 in 10.0 mi North 8.1 mph - N/A   Scattered Clouds
5:55 AM 62.6 °F 57.2 °F 82% 30.06 in 10.0 mi North 6.9 mph - N/A   Scattered Clouds
6:15 AM 60.8 °F 57.2 °F 88% 30.07 in 10.0 mi NNW 4.6 mph - N/A   Scattered Clouds
6:35 AM 59.0 °F 55.4 °F 88% 30.08 in 10.0 mi NNW 5.8 mph - N/A   Clear
6:55 AM 60.8 °F 59.0 °F 94% 30.08 in 10.0 mi NNW 5.8 mph - N/A   Clear
7:15 AM 60.8 °F 59.0 °F 94% 30.10 in 10.0 mi NNW 8.1 mph - N/A   Clear
7:35 AM 62.6 °F 59.0 °F 88% 30.11 in 10.0 mi NNW 10.4 mph - N/A   Clear
7:55 AM 62.6 °F 57.2 °F 82% 30.11 in 10.0 mi NNW 11.5 mph 17.3 mph N/A   Clear
8:15 AM 64.4 °F 57.2 °F 77% 30.12 in 10.0 mi NNW 11.5 mph 17.3 mph N/A   Clear
8:35 AM 64.4 °F 55.4 °F 73% 30.12 in 10.0 mi NNW 12.7 mph 18.4 mph N/A   Clear
8:55 AM 64.4 °F 53.6 °F 68% 30.13 in 10.0 mi NNW 15.0 mph 20.7 mph N/A   Clear
9:15 AM 66.2 °F 53.6 °F 64% 30.13 in 10.0 mi NNW 16.1 mph 20.7 mph N/A   Clear
9:35 AM 64.4 °F 53.6 °F 68% 30.14 in 10.0 mi NW 12.7 mph - N/A   Clear
9:55 AM 66.2 °F 53.6 °F 64% 30.14 in 10.0 mi NW 13.8 mph - N/A   Clear
10:35 AM 68.0 °F 55.4 °F 64% 30.14 in 10.0 mi NNW 12.7 mph - N/A   Clear
10:55 AM 66.2 °F 53.6 °F 64% 30.13 in 10.0 mi NNW 15.0 mph 19.6 mph N/A   Clear
11:15 AM 68.0 °F 53.6 °F 60% 30.13 in 10.0 mi NNW 13.8 mph 21.9 mph N/A   Clear
11:35 AM 68.0 °F 53.6 °F 60% 30.12 in 10.0 mi NW 13.8 mph 20.7 mph N/A   Clear
11:55 AM 68.0 °F 53.6 °F 60% 30.11 in 10.0 mi North 11.5 mph - N/A   Clear
12:15 PM 69.8 °F 53.6 °F 56% 30.11 in 10.0 mi NNW 11.5 mph - N/A   Clear
12:35 PM 68.0 °F 53.6 °F 60% 30.10 in 10.0 mi NW 15.0 mph - N/A   Clear
12:55 PM 69.8 °F 51.8 °F 53% 30.09 in 10.0 mi NNW 13.8 mph 20.7 mph N/A   Clear
1:15 PM 69.8 °F 51.8 °F 53% 30.08 in 10.0 mi NNW 13.8 mph 18.4 mph N/A   Clear
1:35 PM 69.8 °F 51.8 °F 53% 30.08 in 10.0 mi NW 11.5 mph - N/A   Clear
1:55 PM 69.8 °F 51.8 °F 53% 30.08 in 10.0 mi NNW 10.4 mph - N/A   Clear
2:15 PM 69.8 °F 51.8 °F 53% 30.08 in 10.0 mi NW 13.8 mph 20.7 mph N/A   Clear
2:35 PM 69.8 °F 51.8 °F 53% 30.09 in 10.0 mi NNW 10.4 mph 19.6 mph N/A   Clear
2:55 PM 69.8 °F 51.8 °F 53% 30.08 in 10.0 mi NW 16.1 mph 20.7 mph N/A   Clear
3:15 PM 69.8 °F 51.8 °F 53% 30.07 in 10.0 mi NNW 13.8 mph 17.3 mph N/A   Clear
3:35 PM 69.8 °F 51.8 °F 53% 30.07 in 10.0 mi NW 17.3 mph 20.7 mph N/A   Clear
3:55 PM 68.0 °F 51.8 °F 56% 30.08 in 10.0 mi NNW 16.1 mph 20.7 mph N/A   Clear
4:15 PM 66.2 °F 50.0 °F 56% 30.08 in 10.0 mi NNW 15.0 mph 20.7 mph N/A   Clear
4:35 PM 64.4 °F 51.8 °F 64% 30.08 in 10.0 mi NNW 15.0 mph 20.7 mph N/A   Clear
4:55 PM 62.6 °F 51.8 °F 68% 30.09 in 10.0 mi NNW 11.5 mph 18.4 mph N/A   Clear
5:15 PM 62.6 °F 50.0 °F 63% 30.10 in 10.0 mi NNW 16.1 mph 20.7 mph N/A   Clear
5:55 PM 60.8 °F 50.0 °F 68% 30.12 in 10.0 mi NNW 15.0 mph 20.7 mph N/A   Clear
6:15 PM 59.0 °F 50.0 °F 72% 30.12 in 10.0 mi NNW 12.7 mph 18.4 mph N/A   Clear
6:35 PM 59.0 °F 50.0 °F 72% 30.13 in 10.0 mi NNW 11.5 mph - N/A   Clear
6:55 PM 59.0 °F 50.0 °F 72% 30.14 in 10.0 mi NNW 8.1 mph - N/A   Clear
7:15 PM 57.2 °F 50.0 °F 77% 30.15 in 10.0 mi NNW 6.9 mph - N/A   Clear
7:35 PM 55.4 °F 50.0 °F 82% 30.17 in 10.0 mi NW 6.9 mph - N/A   Clear
8:15 PM 53.6 °F 50.0 °F 88% 30.18 in 10.0 mi NNW 5.8 mph - N/A   Clear
8:35 PM 53.6 °F 50.0 °F 88% 30.19 in 10.0 mi NNW 3.5 mph - N/A   Clear
8:55 PM 53.6 °F 50.0 °F 88% 30.21 in 10.0 mi NNW 5.8 mph - N/A   Clear
9:15 PM 53.6 °F 50.0 °F 88% 30.21 in 10.0 mi NNW 4.6 mph - N/A   Clear
9:35 PM 53.6 °F 50.0 °F 88% 30.22 in 10.0 mi NNW 5.8 mph - N/A   Clear
9:55 PM 55.4 °F 50.0 °F 82% 30.22 in 10.0 mi NW 6.9 mph - N/A   Clear
10:15 PM 55.4 °F 50.0 °F 82% 30.23 in 10.0 mi NW 6.9 mph - N/A   Clear
10:35 PM 55.4 °F 50.0 °F 82% 30.22 in 10.0 mi NNW 8.1 mph - N/A   Clear
10:55 PM 53.6 °F 50.0 °F 88% 30.23 in 10.0 mi NNW 6.9 mph - N/A   Clear
11:15 PM 53.6 °F 50.0 °F 88% 30.24 in 10.0 mi NW 6.9 mph - N/A   Clear
11:35 PM 55.4 °F 50.0 °F 82% 30.25 in 10.0 mi NNW 9.2 mph - N/A   Clear
11:55 PM 55.4 °F 50.0 °F 82% 30.24 in 10.0 mi NNW 9.2 mph - N/A   Clear